ELEKTRON 1 DEB, 750

Orbit data source: Space-Track

ELEKTRON 1 DEB, 750 is space debris in LEO originally from a launch on Thu, 30 Jan 1964 UTC launched from the Tyuratam Missile And Space Complex (TTMTR). Debris objects in space refer to the collection of defunct objects orbiting the Earth. Examples of debris include non-operational satellites, rocket bodies, and fragments generated from explosions, collisions, or faulty payload assembly.

Loading next visibility...
Identifier
750, 1964-006C
Orbit
LEO
Country
Flag of CISCIS
Related business
Manufacturer
OKB-1
Mission
Spacecraft
Bus & Motor
ADAPTER, Unknown motor
Mass
Unknown
Launch date (UTC)
1964-01-30 (62 years ago)
Launch vehicle
Unknown
Launch site
Tyuratam Missile And Space Complex (TTMTR)
Object type
Payload
Rocket body
Debris
Shape & HBR
Unknown shape, 0.3 m
Radar Cross Section
Medium (>0.1 m² and <1 m²)

Expand to show TLE details & history
Last TLE update: 6 hours ago

TLE from 6 hours ago
0 ELEKTRON 1 DEB
1   750U 64006C   26034.11939884  .00032253  00000-0  32510-2 0  9994
2   750  60.7536 311.3797 1400928 359.8590   0.1806 12.46014828829915
Epoch: 2026-02-03T02:51Z
TLE epoch observation values (Epoch: 2026-02-03T02:51:56.059Z)
Latitude
-0.00002°
Longitude
135.0912°
Altitude
381.615 km
Speed
8.201 km/s
True Right ascension
20h 45m 31s
True Declination
0° 00' 00"
Sunlit
Object was in daylight at epoch
Visualization orbit readout
Latitude
Unknown
Longitude
Unknown
Altitude
Unknown
Speed
Unknown
Apparent Right ascension
Unknown
Apparent Declination
Unknown
Sunlit
N/A
Visualization observer readout
Local Sidereal Time
11:15:06
Azimuth
Unknown
Elevation
Unknown
Doppler factor
Unknown
Orbital elements
Apogee altitude
2,581.317 km
Perigee altitude
379.47 km
Semi-major axis
7,858.531 km
Eccentricity
0.14009
Inclination
60.7536°
RAAN
311.3797°
Arg. of periapsis
359.859°
True anomaly
0.24183°
Mean anomaly
0.1806°
Eccentric anomaly
0.21002°
Mean motion
3.11552 °/min
Orbital period
115.55 mins
BSTAR
0.003251

Documentation

Showing up to 5 results
|